Weather History for KHHR - January, 2013

Change the Weather History Date:

Sunday, January 6, 2013

  Actual Average Record
Temperature  
Mean Temperature 52 °F -  
Max Temperature 57 °F 63 °F 87 °F (2006)
Min Temperature 48 °F 47 °F 34 °F (1949)
Degree Days  
Heating Degree Days 12    
Growing Degree Days 2 (Base 50)    
Moisture  
Dew Point 45 °F    
Average Humidity 80    
Maximum Humidity 100    
Minimum Humidity 58    
Precipitation  
Precipitation 0.10 in - - ()
Sea Level Pressure  
Sea Level Pressure 30.14 in    
Wind  
Wind Speed 2 mph (West)    
Max Wind Speed 16 mph    
Max Gust Speed 26 mph    
Visibility 8 miles    
Events Rain    
Averages and records for this station are not official NWS values.
T = Trace of Precipitation, MM = Missing Value Source: NWS Daily Summary

Daily Weather History Graph

Daily Weather History Graph

Search for Another Location

Airport or City:

Trip Planner

Search our weather history database for the weather conditions in past years. The results will help you decide how hot, cold, wet, or windy it might be!

Date:

Astronomy

Jan. 06, 2013 Rise Set
Actual Time 6:59 AM PST 4:59 PM PST
Civil Twilight 6:31 AM PST 5:27 PM PST
Nautical Twilight 6:00 AM PST 5:58 PM PST
Astronomical Twilight 5:30 AM PST 6:28 PM PST
Moon 1:25 AM PST (1/6) 12:25 PM PST (1/6)
Length of Visible Light 10h 55m
Length of Day
10h 00m
Waning Crescent, 32% of the Moon is Illuminated
Jan 6
Waning Crescent
Jan 11
New
Jan 18
First Quarter
Jan 26
Full
Feb 3
Last Quarter

Hourly Weather History & Observations

Time (PST) Temp. Dew Point Humidity Pressure Visibility Wind Dir Wind Speed Gust Speed Precip Events Conditions
12:45 AM 51.8 °F 46.4 °F 82% 30.20 in 10.0 mi Calm Calm - N/A   Overcast
12:53 AM 52.0 °F 46.0 °F 80% 30.20 in 10.0 mi Calm Calm - N/A   Overcast
1:40 AM 51.8 °F 42.8 °F 71% 30.18 in 8.0 mi East 6.9 mph - N/A   Overcast
1:53 AM 52.0 °F 44.1 °F 74% 30.19 in 10.0 mi East 6.9 mph - N/A   Overcast
2:53 AM 50.0 °F 45.0 °F 83% 30.20 in 2.5 mi Calm Calm - 0.00 in Rain Light Rain
3:07 AM 48.2 °F 46.4 °F 93% 30.20 in 2.0 mi Calm Calm - 0.01 in Rain Light Rain
3:53 AM 48.9 °F 48.0 °F 97% 30.19 in 2.0 mi Calm Calm - 0.08 in Rain Light Rain
4:05 AM 48.2 °F 48.2 °F 100% 30.19 in 4.0 mi Calm Calm - 0.01 in Rain Light Rain
4:53 AM 48.9 °F 46.9 °F 93% 30.19 in 5.0 mi Calm Calm - 0.01 in   Mostly Cloudy
5:12 AM 48.2 °F 46.4 °F 93% 30.19 in 4.0 mi Calm Calm - N/A   Partly Cloudy
5:53 AM 48.0 °F 46.0 °F 93% 30.19 in 4.0 mi Calm Calm - 0.00 in   Clear
6:17 AM 48.2 °F 46.4 °F 93% 30.20 in 3.0 mi Calm Calm - N/A   Mostly Cloudy
6:31 AM 48.2 °F 46.4 °F 93% 30.20 in 3.0 mi Calm Calm - N/A   Overcast
6:53 AM 48.0 °F 46.9 °F 96% 30.20 in 4.0 mi Calm Calm - N/A   Overcast
7:29 AM 48.2 °F 46.4 °F 93% 30.20 in 4.0 mi Calm Calm - N/A   Mostly Cloudy
7:53 AM 50.0 °F 46.9 °F 89% 30.20 in 4.0 mi Calm Calm - N/A   Overcast
8:53 AM 50.0 °F 46.9 °F 89% 30.21 in 7.0 mi Calm Calm - 0.01 in   Mostly Cloudy
9:53 AM 53.1 °F 48.0 °F 83% 30.21 in 6.0 mi Calm Calm - N/A   Haze
10:53 AM 54.0 °F 45.0 °F 72% 30.18 in 10.0 mi Calm Calm - N/A   Haze
11:53 AM 55.9 °F 44.1 °F 64% 30.16 in 10.0 mi West 8.1 mph - N/A   Haze
12:00 PM 55.4 °F 44.6 °F 67% 30.15 in 10.0 mi West 8.1 mph - N/A   Haze
12:15 PM 55.4 °F 42.8 °F 63% 30.15 in 10.0 mi WNW 8.1 mph - N/A   Haze
12:53 PM 57.0 °F 43.0 °F 59% 30.13 in 10.0 mi West 10.4 mph 18.4 mph N/A   Haze
1:53 PM 57.9 °F 43.0 °F 58% 30.10 in 10.0 mi West 16.1 mph - N/A   Partly Cloudy
2:53 PM 55.9 °F 42.1 °F 60% 30.09 in 10.0 mi West 16.1 mph 26.5 mph N/A   Mostly Cloudy
3:53 PM 55.0 °F 43.0 °F 64% 30.08 in 10.0 mi WSW 11.5 mph - N/A   Mostly Cloudy
4:00 PM 53.6 °F 44.6 °F 72% 30.08 in 10.0 mi WSW 10.4 mph - N/A   Mostly Cloudy
4:53 PM 54.0 °F 46.0 °F 75% 30.07 in 10.0 mi WSW 5.8 mph - N/A   Overcast
5:53 PM 53.1 °F 46.9 °F 80% 30.05 in 10.0 mi Calm Calm - N/A   Mostly Cloudy
6:53 PM 54.0 °F 46.0 °F 75% 30.05 in 10.0 mi Calm Calm - N/A   Overcast
7:53 PM 53.1 °F 46.0 °F 77% 30.05 in 10.0 mi Calm Calm - N/A   Mostly Cloudy
8:53 PM 52.0 °F 46.0 °F 80% 30.05 in 10.0 mi Calm Calm - N/A   Mostly Cloudy
9:53 PM 52.0 °F 46.0 °F 80% 30.04 in 10.0 mi Calm Calm - N/A   Mostly Cloudy
10:53 PM 50.0 °F 44.1 °F 80% 30.05 in 10.0 mi Calm Calm - N/A   Clear
11:53 PM 48.9 °F 43.0 °F 80% 30.04 in 10.0 mi Calm Calm - N/A   Partly Cloudy